Location: *
(50.3194°N, 7.1067°E)
Time: 22:14:39
(UTC+00:00)

ADEOS Rocket - Pass Details

Date: 22 September 2019
Orbit: 859 x 1306 km, 98.7° (Epoch: 20 October)

Event Time Altitude Azimuth Distance (km) Brightness Sun altitude
Rises 20:28:01 0° 12° (NNE) 4,074 6.6 -27.2°
Reaches altitude 10° 20:30:37 10° 9° (N) 3,160 6.0 -27.5°
Maximum altitude 20:37:45 56° 294° (WNW) 1,485 4.1 -28.4°
Drops below altitude 10° 20:45:15 10° 219° (SW) 3,315 5.7 -29.2°
Sets 20:48:01 0° 215° (SW) 4,287 6.3 -29.6°
